Station Historical Data
Daily Summary for October 25, 2017 Units:  English    Metric   Both
« Previous Day
Next Day »
Daily Weekly Monthly Yearly Custom
  High: Low: Average:
Temperature: 50.2 °F 43.7 °F 46.8 °F
Dew Point: 44.1 °F 36.8 °F 40.5 °F
Humidity: 89% 66% 79%
Wind Speed: 16.0mph 0.0mph 3.3mph
Wind Gust: 21.0mph - -
Wind- - SSW
Pressure: 29.83 in 29.66 in -
Precipitation: 0.00 in    
Historical Graphs
 
 
Tabular Data for October 25, 2017
Time Temperature Dew Point Pressure Wind Wind Speed Wind Gust Humidity Rainfall Rate (Hourly)
00:04 50.2 °F 40.8 °F 29.69 in SSW 6.0 mph 14.0 mph 70% 0.00 in
00:09 50.1 °F 40.7 °F 29.69 in South 11.0 mph 15.0 mph 70% 0.00 in
00:14 50.2 °F 40.8 °F 29.69 in WSW 10.0 mph 19.0 mph 70% 0.00 in
00:19 50.1 °F 40.7 °F 29.69 in South 7.0 mph 18.0 mph 70% 0.00 in
00:24 50.1 °F 40.7 °F 29.69 in South 9.0 mph 12.0 mph 70% 0.00 in
00:29 49.9 °F 40.5 °F 29.68 in SSW 8.0 mph 14.0 mph 70% 0.00 in
00:34 49.9 °F 40.1 °F 29.68 in SSW 3.0 mph 21.0 mph 69% 0.00 in
00:39 49.5 °F 39.7 °F 29.68 in South 6.0 mph 11.0 mph 69% 0.00 in
00:44 49.2 °F 39.8 °F 29.68 in SSW 5.0 mph 12.0 mph 70% 0.00 in
00:49 49.1 °F 39.7 °F 29.68 in SSW 5.0 mph 12.0 mph 70% 0.00 in
00:54 49.1 °F 39.7 °F 29.68 in SSW 5.0 mph 14.0 mph 70% 0.00 in
00:59 48.9 °F 39.5 °F 29.68 in SSW 5.0 mph 14.0 mph 70% 0.00 in
01:04 49.1 °F 39.7 °F 29.68 in SSW 5.0 mph 13.0 mph 70% 0.00 in
01:09 49.0 °F 39.6 °F 29.68 in South 7.0 mph 12.0 mph 70% 0.00 in
01:14 48.9 °F 39.5 °F 29.68 in SE 5.0 mph 15.0 mph 70% 0.00 in
01:19 48.8 °F 39.4 °F 29.68 in SSW 6.0 mph 15.0 mph 70% 0.00 in
01:24 48.7 °F 39.4 °F 29.68 in SSW 2.0 mph 11.0 mph 70% 0.00 in
01:29 48.4 °F 39.1 °F 29.68 in SSE 6.0 mph 11.0 mph 70% 0.00 in
01:34 48.4 °F 39.1 °F 29.68 in SW 11.0 mph 14.0 mph 70% 0.00 in
01:39 48.3 °F 39.0 °F 29.68 in SSW 7.0 mph 12.0 mph 70% 0.00 in
01:44 48.3 °F 39.0 °F 29.68 in SSW 1.0 mph 12.0 mph 70% 0.00 in
01:49 48.1 °F 39.1 °F 29.68 in SW 5.0 mph 14.0 mph 71% 0.00 in
01:54 48.0 °F 39.0 °F 29.68 in SSW 5.0 mph 14.0 mph 71% 0.00 in
01:59 48.0 °F 39.0 °F 29.68 in SSW 5.0 mph 11.0 mph 71% 0.00 in
02:04 47.9 °F 38.9 °F 29.67 in SSW 5.0 mph 11.0 mph 71% 0.00 in
02:09 47.8 °F 39.2 °F 29.67 in SSW 5.0 mph 15.0 mph 72% 0.00 in
02:14 47.9 °F 38.9 °F 29.68 in SSW 5.0 mph 15.0 mph 71% 0.00 in
02:19 47.8 °F 38.8 °F 29.67 in SSW 6.0 mph 14.0 mph 71% 0.00 in
02:24 47.8 °F 38.8 °F 29.67 in SSW 7.0 mph 14.0 mph 71% 0.00 in
02:29 47.8 °F 38.8 °F 29.67 in SSW 6.0 mph 15.0 mph 71% 0.00 in
02:34 47.7 °F 38.8 °F 29.67 in SW 5.0 mph 13.0 mph 71% 0.00 in
02:39 47.6 °F 38.7 °F 29.67 in South 7.0 mph 14.0 mph 71% 0.00 in
02:44 47.5 °F 38.6 °F 29.67 in South 4.0 mph 12.0 mph 71% 0.00 in
02:49 47.4 °F 38.5 °F 29.67 in SSW 5.0 mph 14.0 mph 71% 0.00 in
02:54 47.3 °F 38.7 °F 29.67 in SSW 6.0 mph 12.0 mph 72% 0.00 in
02:59 47.3 °F 38.7 °F 29.67 in SSW 6.0 mph 16.0 mph 72% 0.00 in
03:04 47.2 °F 38.6 °F 29.66 in SSW 6.0 mph 16.0 mph 72% 0.00 in
03:09 47.2 °F 38.3 °F 29.66 in SSW 6.0 mph 15.0 mph 71% 0.00 in
03:14 47.1 °F 38.2 °F 29.67 in SSW 6.0 mph 15.0 mph 71% 0.00 in
03:19 47.3 °F 38.4 °F 29.66 in SSW 6.0 mph 14.0 mph 71% 0.00 in
03:24 47.2 °F 38.3 °F 29.66 in SSW 6.0 mph 14.0 mph 71% 0.00 in
03:29 47.2 °F 38.3 °F 29.67 in SE 4.0 mph 17.0 mph 71% 0.00 in
03:34 47.2 °F 37.9 °F 29.67 in SSW 1.0 mph 15.0 mph 70% 0.00 in
03:39 47.2 °F 37.9 °F 29.66 in WSW 4.0 mph 11.0 mph 70% 0.00 in
03:44 47.3 °F 38.0 °F 29.66 in SW 2.0 mph 18.0 mph 70% 0.00 in
03:49 47.4 °F 37.7 °F 29.66 in SSW 9.0 mph 13.0 mph 69% 0.00 in
03:54 47.3 °F 38.0 °F 29.66 in South 7.0 mph 15.0 mph 70% 0.00 in
03:59 47.3 °F 37.6 °F 29.67 in SSW 4.0 mph 18.0 mph 69% 0.00 in
04:04 47.1 °F 37.4 °F 29.67 in SSW 6.0 mph 18.0 mph 69% 0.00 in
04:09 47.1 °F 37.4 °F 29.66 in SSW 6.0 mph 14.0 mph 69% 0.00 in
04:14 47.1 °F 37.8 °F 29.66 in SSW 6.0 mph 14.0 mph 70% 0.00 in
04:19 46.9 °F 37.6 °F 29.67 in SSW 6.0 mph 16.0 mph 70% 0.00 in
04:24 47.0 °F 37.7 °F 29.67 in SSW 6.0 mph 16.0 mph 70% 0.00 in
04:29 46.8 °F 37.5 °F 29.67 in SSW 5.0 mph 15.0 mph 70% 0.00 in
04:34 46.8 °F 37.5 °F 29.67 in SSW 8.0 mph 11.0 mph 70% 0.00 in
04:39 46.9 °F 37.6 °F 29.67 in SSW 6.0 mph 13.0 mph 70% 0.00 in
04:44 47.0 °F 37.7 °F 29.67 in SW 4.0 mph 13.0 mph 70% 0.00 in
04:49 47.0 °F 37.7 °F 29.67 in South 3.0 mph 11.0 mph 70% 0.00 in
04:54 46.9 °F 37.6 °F 29.67 in SSW 7.0 mph 10.0 mph 70% 0.00 in
04:59 47.0 °F 37.7 °F 29.67 in SSW 7.0 mph 15.0 mph 70% 0.00 in
05:04 47.2 °F 37.9 °F 29.67 in SW 11.0 mph 11.0 mph 70% 0.00 in
05:09 47.3 °F 38.0 °F 29.67 in South 7.0 mph 15.0 mph 70% 0.00 in
05:14 47.4 °F 38.1 °F 29.67 in SSW 7.0 mph 15.0 mph 70% 0.00 in
05:19 47.5 °F 37.8 °F 29.67 in SSW 7.0 mph 14.0 mph 69% 0.00 in
05:24 47.6 °F 37.9 °F 29.67 in SSW 7.0 mph 14.0 mph 69% 0.00 in
05:29 47.6 °F 37.9 °F 29.67 in SSW 7.0 mph 15.0 mph 69% 0.00 in
05:34 47.7 °F 37.7 °F 29.67 in South 16.0 mph 16.0 mph 68% 0.00 in
05:39 47.7 °F 37.7 °F 29.67 in South 7.0 mph 17.0 mph 68% 0.00 in
05:44 47.8 °F 37.7 °F 29.67 in SSW 8.0 mph 17.0 mph 68% 0.00 in
05:49 47.8 °F 37.7 °F 29.67 in SSW 7.0 mph 18.0 mph 68% 0.00 in
05:54 47.8 °F 37.4 °F 29.66 in SSW 7.0 mph 18.0 mph 67% 0.00 in
05:59 47.8 °F 37.4 °F 29.66 in SSW 7.0 mph 16.0 mph 67% 0.00 in
06:04 47.8 °F 37.4 °F 29.67 in SSW 5.0 mph 12.0 mph 67% 0.00 in
06:09 47.8 °F 37.4 °F 29.66 in South 7.0 mph 16.0 mph 67% 0.00 in
06:14 47.8 °F 37.4 °F 29.67 in WSW 2.0 mph 13.0 mph 67% 0.00 in
06:19 47.8 °F 37.4 °F 29.67 in SSW 6.0 mph 15.0 mph 67% 0.00 in
06:24 47.8 °F 37.4 °F 29.67 in SSW 6.0 mph 15.0 mph 67% 0.00 in
06:29 47.8 °F 37.4 °F 29.67 in SSW 6.0 mph 12.0 mph 67% 0.00 in
06:34 47.8 °F 37.4 °F 29.67 in SSW 6.0 mph 15.0 mph 67% 0.00 in
06:39 47.7 °F 37.3 °F 29.67 in SSW 7.0 mph 14.0 mph 67% 0.00 in
06:44 47.8 °F 37.4 °F 29.67 in SW 8.0 mph 17.0 mph 67% 0.00 in
06:49 47.8 °F 37.4 °F 29.67 in SSW 3.0 mph 11.0 mph 67% 0.00 in
06:54 47.8 °F 37.0 °F 29.67 in SSW 6.0 mph 14.0 mph 66% 0.00 in
06:59 47.8 °F 37.4 °F 29.67 in South 5.0 mph 12.0 mph 67% 0.00 in
07:04 47.8 °F 37.4 °F 29.66 in SSW 5.0 mph 13.0 mph 67% 0.00 in
07:09 47.7 °F 36.9 °F 29.67 in SSW 5.0 mph 13.0 mph 66% 0.00 in
07:14 47.7 °F 36.9 °F 29.67 in South 2.0 mph 10.0 mph 66% 0.00 in
07:19 47.7 °F 36.9 °F 29.67 in SW 5.0 mph 16.0 mph 66% 0.00 in
07:24 47.6 °F 37.2 °F 29.67 in SSW 6.0 mph 16.0 mph 67% 0.00 in
07:29 47.6 °F 36.8 °F 29.67 in SSW 6.0 mph 13.0 mph 66% 0.00 in
07:34 47.6 °F 37.2 °F 29.67 in SSW 11.0 mph 15.0 mph 67% 0.00 in
07:39 47.7 °F 37.3 °F 29.67 in South 3.0 mph 13.0 mph 67% 0.00 in
07:44 47.7 °F 37.3 °F 29.67 in SSW 10.0 mph 14.0 mph 67% 0.00 in
07:49 47.8 °F 37.4 °F 29.67 in SW 5.0 mph 14.0 mph 67% 0.00 in
07:54 47.8 °F 37.4 °F 29.67 in South 5.0 mph 17.0 mph 67% 0.00 in
07:59 47.8 °F 37.4 °F 29.67 in SSW 7.0 mph 17.0 mph 67% 0.00 in
08:04 47.8 °F 37.4 °F 29.68 in SSW 6.0 mph 14.0 mph 67% 0.00 in
08:09 47.8 °F 37.7 °F 29.67 in SSW 5.0 mph 14.0 mph 68% 0.00 in
08:14 47.8 °F 37.7 °F 29.68 in SSW 5.0 mph 14.0 mph 68% 0.00 in
08:19 47.9 °F 37.8 °F 29.68 in SSW 5.0 mph 15.0 mph 68% 0.00 in
08:24 47.9 °F 38.2 °F 29.68 in SSW 3.0 mph 12.0 mph 69% 0.00 in
08:29 47.9 °F 38.2 °F 29.68 in SW 10.0 mph 12.0 mph 69% 0.00 in
08:34 48.0 °F 38.3 °F 29.68 in SSW 6.0 mph 12.0 mph 69% 0.00 in
08:39 48.0 °F 38.3 °F 29.68 in SSW 9.0 mph 13.0 mph 69% 0.00 in
08:44 48.1 °F 38.4 °F 29.68 in SSW 3.0 mph 16.0 mph 69% 0.00 in
08:49 48.1 °F 38.4 °F 29.69 in South 2.0 mph 12.0 mph 69% 0.00 in
08:54 48.3 °F 39.0 °F 29.69 in WSW 8.0 mph 12.0 mph 70% 0.00 in
08:59 48.4 °F 39.1 °F 29.69 in SSW 7.0 mph 14.0 mph 70% 0.00 in
09:04 48.5 °F 39.2 °F 29.69 in SSW 6.0 mph 18.0 mph 70% 0.00 in
09:09 48.4 °F 38.7 °F 29.69 in SSW 7.0 mph 18.0 mph 69% 0.00 in
09:14 48.4 °F 39.1 °F 29.69 in SSW 7.0 mph 14.0 mph 70% 0.00 in
09:19 48.4 °F 39.1 °F 29.69 in SW 6.0 mph 14.0 mph 70% 0.00 in
09:24 48.4 °F 39.1 °F 29.69 in South 10.0 mph 14.0 mph 70% 0.00 in
09:29 48.4 °F 39.1 °F 29.69 in SW 7.0 mph 16.0 mph 70% 0.00 in
09:34 48.3 °F 39.3 °F 29.69 in West 4.0 mph 13.0 mph 71% 0.00 in
09:39 48.3 °F 39.3 °F 29.69 in SW 5.0 mph 13.0 mph 71% 0.00 in
09:44 48.3 °F 39.3 °F 29.70 in SSW 4.0 mph 14.0 mph 71% 0.00 in
09:49 48.3 °F 39.3 °F 29.70 in West 6.0 mph 10.0 mph 71% 0.00 in
09:54 48.4 °F 39.8 °F 29.70 in SSW 3.0 mph 13.0 mph 72% 0.00 in
09:59 48.3 °F 39.7 °F 29.70 in SSW 7.0 mph 19.0 mph 72% 0.00 in
10:04 48.1 °F 39.9 °F 29.70 in WSW 6.0 mph 12.0 mph 73% 0.00 in
10:09 47.8 °F 39.9 °F 29.70 in SSW 7.0 mph 17.0 mph 74% 0.00 in
10:14 47.6 °F 40.4 °F 29.70 in SW 6.0 mph 17.0 mph 76% 0.00 in
10:19 47.5 °F 40.3 °F 29.70 in WSW 4.0 mph 9.0 mph 76% 0.00 in
10:24 47.5 °F 40.6 °F 29.70 in WSW 5.0 mph 12.0 mph 77% 0.00 in
10:29 47.5 °F 40.6 °F 29.70 in SW 5.0 mph 12.0 mph 77% 0.00 in
10:34 47.5 °F 40.6 °F 29.70 in SW 5.0 mph 9.0 mph 77% 0.00 in
10:39 47.5 °F 40.6 °F 29.70 in SSW 7.0 mph 13.0 mph 77% 0.00 in
10:44 47.6 °F 40.7 °F 29.70 in SSW 1.0 mph 13.0 mph 77% 0.00 in
10:49 47.7 °F 40.8 °F 29.70 in SW 5.0 mph 13.0 mph 77% 0.01 in
10:54 47.7 °F 40.5 °F 29.70 in SW 3.0 mph 12.0 mph 76% 0.01 in
10:59 47.8 °F 40.9 °F 29.70 in WSW 3.0 mph 11.0 mph 77% 0.01 in
11:04 47.7 °F 40.8 °F 29.70 in WSW 2.0 mph 13.0 mph 77% 0.01 in
11:09 47.7 °F 41.2 °F 29.70 in WSW 3.0 mph 9.0 mph 78% 0.01 in
11:14 47.6 °F 41.1 °F 29.71 in WSW 7.0 mph 9.0 mph 78% 0.01 in
11:19 47.5 °F 41.0 °F 29.71 in SW 5.0 mph 13.0 mph 78% 0.01 in
11:24 47.5 °F 41.3 °F 29.71 in SW 5.0 mph 13.0 mph 79% 0.01 in
11:29 47.5 °F 41.6 °F 29.71 in SW 5.0 mph 9.0 mph 80% 0.02 in
11:34 47.6 °F 41.7 °F 29.71 in SW 5.0 mph 9.0 mph 80% 0.02 in
11:39 47.5 °F 41.6 °F 29.71 in SW 5.0 mph 12.0 mph 80% 0.02 in
11:44 47.4 °F 41.9 °F 29.70 in SW 4.0 mph 12.0 mph 81% 0.03 in
11:49 47.4 °F 41.9 °F 29.71 in SW 4.0 mph 9.0 mph 81% 0.02 in
11:54 47.3 °F 41.8 °F 29.71 in SW 5.0 mph 10.0 mph 81% 0.02 in
11:59 47.3 °F 41.8 °F 29.71 in WSW 3.0 mph 10.0 mph 81% 0.04 in
12:04 47.2 °F 42.3 °F 29.71 in SSW 4.0 mph 7.0 mph 83% 0.05 in
12:09 47.0 °F 42.4 °F 29.72 in West 3.0 mph 9.0 mph 84% 0.05 in
12:14 46.9 °F 42.6 °F 29.72 in West 1.0 mph 4.0 mph 85% 0.07 in
12:19 46.9 °F 42.6 °F 29.72 in Calm   5.0 mph 85% 0.08 in
12:24 46.8 °F 42.8 °F 29.72 in Calm   3.0 mph 86% 0.10 in
12:29 46.7 °F 42.7 °F 29.72 in WSW 2.0 mph 10.0 mph 86% 0.10 in
12:34 46.6 °F 42.9 °F 29.72 in WSW 3.0 mph 10.0 mph 87% 0.10 in
12:39 46.5 °F 42.8 °F 29.72 in WSW 2.0 mph 7.0 mph 87% 0.11 in
12:44 46.4 °F 42.4 °F 29.71 in WSW 3.0 mph 9.0 mph 86% 0.10 in
12:49 46.6 °F 42.9 °F 29.71 in WSW 4.0 mph 9.0 mph 87% 0.11 in
12:54 46.8 °F 43.1 °F 29.71 in WSW 3.0 mph 7.0 mph 87% 0.11 in
12:59 46.9 °F 42.9 °F 29.71 in SSW 3.0 mph 7.0 mph 86% 0.10 in
13:04 47.0 °F 43.0 °F 29.71 in SW 1.0 mph 7.0 mph 86% 0.09 in
13:14 47.0 °F 42.7 °F 29.71 in SW 1.0 mph 8.0 mph 85% 0.08 in
13:19 47.1 °F 43.1 °F 29.71 in SW 2.0 mph 6.0 mph 86% 0.07 in
13:24 47.0 °F 43.0 °F 29.71 in SW 3.0 mph 7.0 mph 86% 0.06 in
13:29 47.0 °F 43.0 °F 29.71 in WSW 5.0 mph 5.0 mph 86% 0.05 in
13:34 47.1 °F 43.1 °F 29.71 in SW 3.0 mph 5.0 mph 86% 0.06 in
13:39 47.0 °F 43.3 °F 29.70 in WSW 3.0 mph 7.0 mph 87% 0.06 in
13:44 47.3 °F 43.6 °F 29.70 in WSW 3.0 mph 7.0 mph 87% 0.07 in
13:49 47.4 °F 43.7 °F 29.70 in WSW 3.0 mph 7.0 mph 87% 0.07 in
13:54 47.5 °F 44.1 °F 29.71 in SW 4.0 mph 5.0 mph 88% 0.07 in
13:59 47.4 °F 44.0 °F 29.71 in West 5.0 mph 6.0 mph 88% 0.07 in
14:04 47.3 °F 43.9 °F 29.71 in WSW 4.0 mph 5.0 mph 88% 0.07 in
14:09 47.0 °F 43.6 °F 29.71 in WSW 2.0 mph 6.0 mph 88% 0.07 in
14:14 47.2 °F 43.8 °F 29.71 in WSW 2.0 mph 7.0 mph 88% 0.06 in
14:19 47.1 °F 43.4 °F 29.72 in WSW 6.0 mph 7.0 mph 87% 0.06 in
14:24 47.0 °F 43.3 °F 29.72 in West 4.0 mph 10.0 mph 87% 0.06 in
14:29 47.0 °F 43.0 °F 29.72 in Calm   8.0 mph 86% 0.06 in
14:34 47.0 °F 43.0 °F 29.72 in SSW 1.0 mph 5.0 mph 86% 0.05 in
14:39 47.0 °F 43.0 °F 29.72 in SW 3.0 mph 3.0 mph 86% 0.04 in
14:44 46.8 °F 42.5 °F 29.72 in SW 2.0 mph 5.0 mph 85% 0.03 in
14:49 47.0 °F 43.0 °F 29.72 in SW 2.0 mph 5.0 mph 86% 0.03 in
14:54 47.1 °F 43.1 °F 29.72 in West 2.0 mph 5.0 mph 86% 0.03 in
14:59 47.2 °F 43.5 °F 29.72 in Calm   3.0 mph 87% 0.02 in
15:04 47.3 °F 43.6 °F 29.72 in Calm     87% 0.02 in
15:09 47.1 °F 43.4 °F 29.72 in Calm     87% 0.03 in
15:14 47.0 °F 43.3 °F 29.72 in Calm   1.0 mph 87% 0.03 in
15:19 46.9 °F 42.9 °F 29.72 in WNW 1.0 mph 7.0 mph 86% 0.04 in
15:24 46.8 °F 43.1 °F 29.73 in WNW 1.0 mph 7.0 mph 87% 0.04 in
15:29 46.9 °F 43.2 °F 29.73 in Calm   3.0 mph 87% 0.04 in
15:34 46.9 °F 43.2 °F 29.73 in Calm   3.0 mph 87% 0.05 in
15:39 47.0 °F 43.3 °F 29.73 in Calm     87% 0.05 in
15:44 47.2 °F 43.5 °F 29.73 in Calm     87% 0.05 in
15:49 47.4 °F 43.7 °F 29.73 in Calm     87% 0.05 in
15:54 47.3 °F 43.6 °F 29.73 in Calm     87% 0.05 in
15:59 47.2 °F 43.8 °F 29.73 in Calm     88% 0.05 in
16:04 47.1 °F 43.4 °F 29.73 in Calm     87% 0.05 in
16:09 47.0 °F 43.3 °F 29.73 in Calm     87% 0.04 in
16:14 47.0 °F 43.3 °F 29.74 in Calm     87% 0.05 in
16:19 47.0 °F 43.6 °F 29.73 in Calm     88% 0.05 in
16:24 47.1 °F 43.7 °F 29.74 in Calm     88% 0.05 in
16:29 47.0 °F 43.6 °F 29.73 in Calm     88% 0.06 in
16:34 47.1 °F 43.7 °F 29.73 in Calm     88% 0.05 in
16:39 46.8 °F 43.4 °F 29.74 in Calm     88% 0.06 in
16:44 46.7 °F 43.3 °F 29.74 in Calm     88% 0.07 in
16:49 46.7 °F 43.3 °F 29.74 in Calm   4.0 mph 88% 0.06 in
16:54 46.6 °F 42.9 °F 29.75 in Calm     87% 0.08 in
16:59 46.4 °F 43.0 °F 29.75 in Calm     88% 0.09 in
17:04 46.5 °F 43.1 °F 29.75 in Calm     88% 0.10 in
17:09 46.4 °F 43.0 °F 29.75 in Calm   2.0 mph 88% 0.10 in
17:14 46.5 °F 43.1 °F 29.75 in Calm   3.0 mph 88% 0.10 in
17:19 46.4 °F 43.0 °F 29.75 in Calm   3.0 mph 88% 0.12 in
17:24 46.2 °F 42.8 °F 29.76 in Calm     88% 0.11 in
17:29 46.3 °F 43.2 °F 29.76 in Calm     89% 0.11 in
17:34 46.1 °F 43.0 °F 29.76 in Calm     89% 0.11 in
17:39 46.1 °F 43.0 °F 29.76 in Calm     89% 0.11 in
17:44 46.1 °F 43.0 °F 29.76 in Calm   2.0 mph 89% 0.12 in
17:49 46.0 °F 42.6 °F 29.76 in SE 1.0 mph 3.0 mph 88% 0.12 in
17:54 45.8 °F 42.4 °F 29.77 in Calm   3.0 mph 88% 0.11 in
17:59 45.7 °F 42.6 °F 29.77 in Calm   2.0 mph 89% 0.10 in
18:04 45.8 °F 42.7 °F 29.77 in Calm   2.0 mph 89% 0.10 in
18:09 45.9 °F 42.8 °F 29.78 in SSE 2.0 mph 4.0 mph 89% 0.10 in
18:14 46.0 °F 42.9 °F 29.78 in Calm   3.0 mph 89% 0.11 in
18:19 46.1 °F 43.0 °F 29.78 in SSW 1.0 mph 1.0 mph 89% 0.11 in
18:24 45.8 °F 42.7 °F 29.79 in Calm   5.0 mph 89% 0.12 in
18:29 45.7 °F 42.6 °F 29.79 in Calm   3.0 mph 89% 0.13 in
18:34 45.7 °F 42.6 °F 29.79 in Calm   3.0 mph 89% 0.14 in
18:39 45.6 °F 42.5 °F 29.79 in Calm   3.0 mph 89% 0.13 in
18:44 45.6 °F 42.5 °F 29.80 in Calm   4.0 mph 89% 0.12 in
18:49 45.6 °F 42.5 °F 29.80 in Calm   1.0 mph 89% 0.13 in
18:54 45.5 °F 42.4 °F 29.80 in Calm     89% 0.12 in
18:59 45.4 °F 42.3 °F 29.79 in SSE 1.0 mph 6.0 mph 89% 0.13 in
19:04 45.4 °F 42.3 °F 29.79 in SSE 1.0 mph 4.0 mph 89% 0.12 in
19:09 45.4 °F 42.3 °F 29.79 in SSE 1.0 mph 4.0 mph 89% 0.12 in
19:14 45.4 °F 42.3 °F 29.80 in SSE 1.0 mph 4.0 mph 89% 0.10 in
19:19 45.3 °F 42.2 °F 29.80 in Calm   4.0 mph 89% 0.07 in
19:24 45.2 °F 42.2 °F 29.80 in South 1.0 mph 5.0 mph 89% 0.07 in
19:29 45.2 °F 42.2 °F 29.80 in SSW 1.0 mph 5.0 mph 89% 0.06 in
19:34 45.4 °F 42.3 °F 29.80 in SSW 1.0 mph 5.0 mph 89% 0.06 in
19:39 45.2 °F 42.2 °F 29.80 in SW 2.0 mph 4.0 mph 89% 0.07 in
19:44 45.1 °F 42.1 °F 29.81 in SW 1.0 mph 3.0 mph 89% 0.07 in
19:54 45.1 °F 42.1 °F 29.81 in WNW 1.0 mph 3.0 mph 89% 0.08 in
19:59 45.0 °F 42.0 °F 29.81 in Calm   4.0 mph 89% 0.09 in
20:04 44.7 °F 41.7 °F 29.81 in Calm     89% 0.11 in
20:09 44.5 °F 41.5 °F 29.81 in Calm   1.0 mph 89% 0.12 in
20:14 44.2 °F 41.2 °F 29.81 in Calm   1.0 mph 89% 0.12 in
20:19 44.0 °F 41.0 °F 29.81 in Calm   1.0 mph 89% 0.13 in
20:24 44.0 °F 41.0 °F 29.81 in Calm     89% 0.12 in
20:29 44.0 °F 41.0 °F 29.82 in Calm     89% 0.12 in
20:34 44.0 °F 41.0 °F 29.82 in Calm     89% 0.12 in
20:39 44.1 °F 41.1 °F 29.81 in Calm     89% 0.13 in
20:44 44.2 °F 41.2 °F 29.81 in Calm   1.0 mph 89% 0.12 in
20:49 44.2 °F 41.2 °F 29.81 in Calm   1.0 mph 89% 0.12 in
20:54 44.0 °F 41.0 °F 29.81 in Calm   2.0 mph 89% 0.11 in
20:59 43.9 °F 40.9 °F 29.81 in Calm   3.0 mph 89% 0.09 in
21:04 43.9 °F 40.9 °F 29.81 in Calm     89% 0.07 in
21:09 43.8 °F 40.8 °F 29.81 in Calm     89% 0.06 in
21:14 43.8 °F 40.8 °F 29.81 in Calm     89% 0.06 in
21:19 43.8 °F 40.8 °F 29.81 in Calm     89% 0.05 in
21:24 43.9 °F 40.9 °F 29.81 in Calm     89% 0.05 in
21:29 44.0 °F 41.0 °F 29.82 in Calm     89% 0.04 in
21:34 44.0 °F 41.0 °F 29.82 in Calm     89% 0.03 in
21:39 44.0 °F 41.0 °F 29.82 in Calm     89% 0.01 in
21:44 44.0 °F 41.0 °F 29.82 in SSW 3.0 mph 4.0 mph 89% 0.01 in
21:49 43.9 °F 40.9 °F 29.83 in South 1.0 mph 5.0 mph 89% 0.00 in
21:54 43.8 °F 40.8 °F 29.83 in Calm   3.0 mph 89% 0.00 in
21:59 43.8 °F 40.8 °F 29.83 in Calm   3.0 mph 89% 0.00 in
22:04 43.8 °F 40.8 °F 29.83 in Calm     89% 0.00 in
22:09 43.8 °F 40.8 °F 29.83 in Calm     89% 0.00 in
22:14 43.8 °F 40.8 °F 29.83 in Calm     89% 0.00 in
22:19 43.8 °F 40.8 °F 29.83 in Calm   4.0 mph 89% 0.00 in
22:24 43.8 °F 40.8 °F 29.83 in Calm   4.0 mph 89% 0.00 in
22:29 43.8 °F 40.8 °F 29.83 in South 1.0 mph 4.0 mph 89% 0.00 in
22:34 43.8 °F 40.8 °F 29.83 in Calm   6.0 mph 89% 0.00 in
22:39 43.7 °F 40.7 °F 29.82 in SSW 2.0 mph 4.0 mph 89% 0.00 in
22:44 43.7 °F 40.7 °F 29.82 in Calm   4.0 mph 89% 0.00 in
22:49 43.8 °F 40.8 °F 29.83 in Calm   7.0 mph 89% 0.00 in
22:54 43.7 °F 40.7 °F 29.82 in SSW 4.0 mph 5.0 mph 89% 0.00 in
22:59 43.8 °F 40.8 °F 29.82 in Calm   4.0 mph 89% 0.00 in
23:04 43.8 °F 40.8 °F 29.82 in Calm   4.0 mph 89% 0.00 in
23:09 43.9 °F 40.9 °F 29.82 in Calm   3.0 mph 89% 0.00 in
23:14 43.9 °F 40.9 °F 29.82 in Calm     89% 0.00 in
23:19 43.8 °F 40.8 °F 29.82 in Calm     89% 0.00 in
23:24 43.9 °F 40.9 °F 29.82 in Calm     89% 0.00 in
23:29 43.8 °F 40.8 °F 29.82 in Calm     89% 0.00 in
23:34 43.8 °F 40.8 °F 29.81 in Calm     89% 0.00 in
23:39 43.8 °F 40.8 °F 29.82 in Calm     89% 0.00 in
23:44 43.8 °F 40.8 °F 29.82 in Calm     89% 0.00 in
23:49 43.8 °F 40.8 °F 29.82 in Calm     89% 0.00 in
23:54 43.8 °F 40.8 °F 29.82 in Calm     89% 0.00 in
23:59 43.7 °F 40.7 °F 29.82 in Calm     89% 0.00 in
Buffalo, New York, USA
Compliments of Weather Underground - 2.5 mb